Location: Milton Keynes
(52.0316°N, 0.7531°W)
Time: 23:59:10
(UTC+00:00)

OTV 5 (USA 277) - Pass Details

Date: 29 January 2019
Orbit: 342 x 346 km, 54.5° (Epoch: 17 February)

Event Time Altitude Azimuth Distance (km) Brightness Sun altitude
Exits shadow 06:29:11 10° 229° (SW) 1,300 ? -12.1°
Reaches altitude 10° 06:29:12 10° 229° (SW) 1,292 ? -12.1°
Maximum altitude 06:32:00 51° 152° (SSE) 439 ? -11.7°
Drops below altitude 10° 06:34:50 10° 74° (ENE) 1,299 ? -11.3°
Sets 06:36:51 0° 70° (ENE) 2,142 ? -11.0°
